Weather History for VIDP - August, 2014

Change the Weather History Date:

Friday, August 15, 2014

  Actual Average Record
Temperature  
Mean Temperature 88 °F -  
Max Temperature 93 °F 91 °F 100 °F (1999)
Min Temperature 82 °F 78 °F 77 °F (1998)
Cooling Degree Days 22    
Growing Degree Days 38 (Base 50)    
Moisture  
Dew Point 73 °F    
Average Humidity 62    
Maximum Humidity 74    
Minimum Humidity 52    
Precipitation  
Precipitation 0.00 in - - ()
Sea Level Pressure  
Sea Level Pressure 29.55 in    
Wind  
Wind Speed 9 mph ()    
Max Wind Speed 17 mph    
Max Gust Speed -    
Visibility 2.5 miles    
Events      
Averages and records for this station are not official NWS values.
T = Trace of Precipitation, MM = Missing Value Source: Averaged Metar Reports

Daily Weather History Graph

Daily Weather History Graph

Search for Another Location

Airport or City:

Trip Planner

Search our weather history database for the weather conditions in past years. The results will help you decide how hot, cold, wet, or windy it might be!

Date:

Astronomy

Aug. 15, 2014 Rise Set
Actual Time 5:50 AM IST 7:01 PM IST
Civil Twilight 5:25 AM IST 7:25 PM IST
Nautical Twilight 4:56 AM IST 7:55 PM IST
Astronomical Twilight 4:26 AM IST 8:25 PM IST
Moon 10:16 PM IST (8/15) 10:34 AM IST (8/15)
Length of Visible Light 13h 59m
Length of Day
13h 10m
Waning Gibbous, 73% of the Moon is Illuminated
Aug 15
Waning Gibbous
Aug 17
Last Quarter
Aug 25
New
Sep 2
First Quarter
Sep 9
Full

Hourly Weather History & Observations

Time (IST) Temp. Heat Index Dew Point Humidity Pressure Visibility Wind Dir Wind Speed Gust Speed Precip Events Conditions
12:00 AM 86.0 °F 93.4 °F 73.4 °F 66% 29.53 in 2.2 mi SW 10.4 mph - N/A   Haze
12:30 AM 84.2 °F 90.9 °F 73.4 °F 70% 29.53 in 2.2 mi SW 10.4 mph - N/A   Haze
1:00 AM 84.2 °F 90.9 °F 73.4 °F 70% 29.53 in 2.2 mi SW 8.1 mph - N/A   Haze
1:30 AM 84.2 °F 90.9 °F 73.4 °F 70% 29.50 in 2.2 mi SW 8.1 mph - N/A   Haze
2:00 AM 84.2 °F 90.9 °F 73.4 °F 70% 29.50 in 2.2 mi SW 9.2 mph - N/A   Haze
2:30 AM 84.2 °F 90.9 °F 73.4 °F 70% 29.50 in 2.2 mi SW 9.2 mph - N/A   Haze
3:00 AM 84.2 °F 90.9 °F 73.4 °F 70% 29.50 in 2.2 mi SW 8.1 mph - N/A   Haze
3:30 AM 84.2 °F 90.9 °F 73.4 °F 70% 29.50 in 2.2 mi SW 8.1 mph - N/A   Haze
4:00 AM 84.2 °F 90.9 °F 73.4 °F 70% 29.50 in 2.2 mi SW 6.9 mph - N/A   Haze
5:00 AM 82.4 °F 88.2 °F 73.4 °F 74% 29.50 in 2.2 mi WSW 8.1 mph - N/A   Haze
5:30 AM 82.4 °F 88.2 °F 73.4 °F 74% 29.50 in 2.2 mi WSW 9.2 mph - N/A   Haze
6:00 AM 82.4 °F 88.2 °F 73.4 °F 74% 29.50 in 2.2 mi WSW 9.2 mph - N/A   Haze
6:30 AM 82.4 °F 88.2 °F 73.4 °F 74% 29.53 in 2.2 mi SW 9.2 mph - N/A   Haze
7:00 AM 82.4 °F 88.2 °F 73.4 °F 74% 29.53 in 2.2 mi WSW 5.8 mph - N/A   Haze
7:30 AM 82.4 °F 88.2 °F 73.4 °F 74% 29.53 in 2.2 mi West 5.8 mph - N/A   Haze
8:00 AM 84.2 °F 90.9 °F 73.4 °F 70% 29.56 in 2.2 mi WSW 10.4 mph - N/A   Haze
8:30 AM 86.0 °F 93.4 °F 73.4 °F 66% 29.56 in 2.2 mi West 15.0 mph - N/A   Haze
9:00 AM 87.8 °F 95.6 °F 73.4 °F 62% 29.56 in 2.2 mi West 16.1 mph - N/A   Haze
9:30 AM 87.8 °F 95.6 °F 73.4 °F 62% 29.59 in 2.2 mi West 17.3 mph - N/A   Haze
10:00 AM 89.6 °F 98.2 °F 73.4 °F 59% 29.59 in 2.2 mi West 13.8 mph - N/A   Haze
10:30 AM 89.6 °F 98.2 °F 73.4 °F 59% 29.59 in 2.5 mi West 13.8 mph - N/A   Haze
11:00 AM 91.4 °F 100.1 °F 73.4 °F 55% 29.59 in 2.5 mi WSW 13.8 mph - N/A   Haze
11:30 AM 91.4 °F 100.1 °F 73.4 °F 55% 29.59 in 2.5 mi West 17.3 mph - N/A   Haze
12:00 PM 93.2 °F 102.4 °F 73.4 °F 52% 29.59 in 2.5 mi West 12.7 mph - N/A   Haze
12:30 PM 93.2 °F 102.4 °F 73.4 °F 52% 29.59 in 2.5 mi WSW 13.8 mph - N/A   Haze
1:00 PM 93.2 °F 102.4 °F 73.4 °F 52% 29.56 in 2.8 mi West 11.5 mph - N/A   Haze
2:00 PM 93.2 °F 105.0 °F 75.2 °F 56% 29.56 in 3.1 mi WSW 10.4 mph - N/A   Haze
2:30 PM 93.2 °F 105.0 °F 75.2 °F 56% 29.53 in 3.1 mi West 10.4 mph - N/A   Haze
3:00 PM 91.4 °F 100.1 °F 73.4 °F 55% 29.53 in 3.1 mi WSW 10.4 mph - N/A   Haze
3:30 PM 91.4 °F 100.1 °F 73.4 °F 55% 29.53 in 3.1 mi WSW 12.7 mph - N/A   Haze
4:00 PM 91.4 °F 102.5 °F 75.2 °F 59% 29.53 in 3.1 mi WSW 11.5 mph - N/A   Haze
4:30 PM 93.2 °F 102.4 °F 73.4 °F 52% 29.50 in 3.1 mi WSW 11.5 mph - N/A   Haze
5:00 PM 91.4 °F 100.1 °F 73.4 °F 55% 29.50 in 3.1 mi WSW 11.5 mph - N/A   Haze
5:30 PM 91.4 °F 100.1 °F 73.4 °F 55% 29.50 in 3.1 mi WSW 10.4 mph - N/A   Haze
6:00 PM 91.4 °F 100.1 °F 73.4 °F 55% 29.53 in 3.1 mi WSW 9.2 mph - N/A   Haze
6:30 PM 89.6 °F 98.2 °F 73.4 °F 59% 29.53 in 3.1 mi WSW 10.4 mph - N/A   Haze
7:00 PM 89.6 °F 96.2 °F 71.6 °F 55% 29.53 in 3.1 mi WSW 9.2 mph - N/A   Haze
7:30 PM 89.6 °F 96.2 °F 71.6 °F 55% 29.53 in 3.1 mi WSW 9.2 mph - N/A   Haze
8:00 PM 87.8 °F 93.8 °F 71.6 °F 58% 29.56 in 2.8 mi SSW 8.1 mph - N/A   Haze
8:30 PM 87.8 °F 93.8 °F 71.6 °F 58% 29.56 in 2.5 mi SSW 6.9 mph - N/A   Haze
9:00 PM 86.0 °F 91.8 °F 71.6 °F 62% 29.59 in 2.5 mi SSW 6.9 mph - N/A   Haze
9:30 PM 86.0 °F 91.8 °F 71.6 °F 62% 29.59 in 2.5 mi SSW 6.9 mph - N/A   Haze
10:00 PM 86.0 °F 91.8 °F 71.6 °F 62% 29.62 in 2.5 mi SSW 5.8 mph - N/A   Haze
10:30 PM 86.0 °F 91.8 °F 71.6 °F 62% 29.62 in 2.5 mi SSW 5.8 mph - N/A   Haze
11:00 PM 84.2 °F 89.6 °F 71.6 °F 66% 29.62 in 2.5 mi SSW 5.8 mph - N/A   Haze
11:30 PM 84.2 °F 88.4 °F 69.8 °F 62% 29.62 in 2.5 mi SSW 8.1 mph - N/A   Haze